Weather History for KSLE - November, 2013

Change the Weather History Date:

Tuesday, November 12, 2013

  Actual Average Record
Temperature  
Mean Temperature 54 °F 46 °F  
Max Temperature 60 °F 54 °F 67 °F (1976)
Min Temperature 47 °F 39 °F 18 °F (1978)
Degree Days  
Heating Degree Days 11 19  
Month to date heating degree days 177 209  
Since 1 July heating degree days 647 741  
Cooling Degree Days 0 0  
Month to date cooling degree days 0 0  
Year to date cooling degree days 502 290  
Growing Degree Days 2 (Base 50)    
Moisture  
Dew Point 50 °F    
Average Humidity 89    
Maximum Humidity 100    
Minimum Humidity 78    
Precipitation  
Precipitation 0.23 in 0.21 in 1.36 in (1965)
Month to date precipitation 1.57 2.28  
Year to date precipitation 21.22 28.59  
Sea Level Pressure  
Sea Level Pressure 30.28 in    
Wind  
Wind Speed 3 mph (South)    
Max Wind Speed 14 mph    
Max Gust Speed 17 mph    
Visibility 7 miles    
Events Rain    
T = Trace of Precipitation, MM = Missing Value Source: NWS Daily Summary

Daily Weather History Graph

Daily Weather History Graph

Search for Another Location

Airport or City:

Trip Planner

Search our weather history database for the weather conditions in past years. The results will help you decide how hot, cold, wet, or windy it might be!

Date:

Astronomy

Nov. 12, 2013 Rise Set
Actual Time 7:05 AM PST 4:46 PM PST
Civil Twilight 6:34 AM PST 5:17 PM PST
Nautical Twilight 5:58 AM PST 5:52 PM PST
Astronomical Twilight 5:24 AM PST 6:27 PM PST
Moon 2:14 PM PST (11/12) 1:49 AM PST (11/12)
Length of Visible Light 10h 43m
Length of Day
9h 40m
Waxing Gibbous, 77% of the Moon is Illuminated
Nov 12
Waxing Gibbous
Nov 17
Full
Nov 25
Last Quarter
Dec 2
New
Dec 9
First Quarter

Hourly Weather History & Observations

Time (PST) Temp. Windchill Dew Point Humidity Pressure Visibility Wind Dir Wind Speed Gust Speed Precip Events Conditions
12:56 AM 46.9 °F - 46.0 °F 97% 30.12 in 5.0 mi SSE 5.8 mph - N/A   Overcast
1:13 AM 46.4 °F 42.9 °F 44.6 °F 93% 30.11 in 6.0 mi SE 6.9 mph - 0.00 in Rain Light Rain
1:56 AM 46.9 °F - 46.0 °F 97% 30.14 in 6.0 mi SSE 6.9 mph - 0.01 in Rain Light Rain
2:56 AM 46.9 °F - 46.0 °F 97% 30.12 in 6.0 mi Calm Calm - 0.03 in Rain Light Rain
3:56 AM 48.0 °F - 46.0 °F 93% 30.14 in 4.0 mi Calm Calm - 0.06 in Rain Light Rain
4:08 AM 48.2 °F - 46.4 °F 93% 30.14 in 4.0 mi North 3.5 mph - 0.01 in Rain Light Rain
4:56 AM 48.0 °F - 46.9 °F 96% 30.17 in 5.0 mi Calm Calm - 0.08 in Rain Light Rain
5:05 AM 48.2 °F - 46.4 °F 93% 30.17 in 5.0 mi Calm Calm - 0.01 in Rain Light Rain
5:44 AM 48.2 °F - 46.4 °F 93% 30.18 in 5.0 mi Calm Calm - 0.04 in Rain Light Rain
5:56 AM 48.0 °F - 46.9 °F 96% 30.18 in 5.0 mi Calm Calm - 0.04 in Rain Light Rain
6:29 AM 48.2 °F - 46.4 °F 93% 30.19 in 7.0 mi Calm Calm - 0.01 in Rain Light Rain
6:56 AM 48.0 °F - 46.9 °F 96% 30.20 in 5.0 mi Calm Calm - 0.01 in   Overcast
7:23 AM 48.2 °F - 46.4 °F 93% 30.21 in 5.0 mi Calm Calm - N/A   Overcast
7:56 AM 48.9 °F - 48.0 °F 97% 30.24 in 7.0 mi South 3.5 mph - N/A   Overcast
8:56 AM 52.0 °F - 50.0 °F 93% 30.26 in 10.0 mi South 6.9 mph - N/A   Overcast
9:20 AM 53.6 °F - 51.8 °F 94% 30.26 in 10.0 mi SSE 9.2 mph - N/A   Overcast
9:24 AM 53.6 °F - 51.8 °F 94% 30.27 in 10.0 mi SSE 8.1 mph - N/A   Overcast
9:56 AM 53.1 °F - 51.1 °F 93% 30.29 in 10.0 mi SSE 8.1 mph - N/A   Overcast
10:56 AM 55.9 °F - 53.1 °F 90% 30.31 in 10.0 mi South 6.9 mph - N/A   Overcast
11:56 AM 57.0 °F - 53.1 °F 87% 30.31 in 10.0 mi South 12.7 mph - N/A   Overcast
12:56 PM 57.9 °F - 53.1 °F 84% 30.30 in 10.0 mi South 10.4 mph - N/A   Overcast
1:03 PM 57.2 °F - 53.6 °F 88% 30.30 in 10.0 mi South 12.7 mph - N/A   Overcast
1:51 PM 59.0 °F - 53.6 °F 82% 30.30 in 10.0 mi South 10.4 mph - N/A   Overcast
1:56 PM 59.0 °F - 53.1 °F 81% 30.30 in 10.0 mi South 9.2 mph - N/A   Overcast
2:03 PM 59.0 °F - 53.6 °F 82% 30.30 in 10.0 mi SSW 8.1 mph - N/A   Overcast
2:56 PM 60.1 °F - 54.0 °F 80% 30.32 in 10.0 mi South 9.2 mph - N/A   Mostly Cloudy
3:56 PM 60.1 °F - 54.0 °F 80% 30.33 in 10.0 mi South 8.1 mph - N/A   Overcast
4:56 PM 54.0 °F - 52.0 °F 93% 30.34 in 10.0 mi Calm Calm - N/A   Mostly Cloudy
5:56 PM 55.0 °F - 53.1 °F 93% 30.35 in 10.0 mi Calm Calm - N/A   Overcast
6:56 PM 54.0 °F - 52.0 °F 93% 30.37 in 8.0 mi Calm Calm - N/A   Overcast
7:56 PM 51.1 °F - 51.1 °F 100% 30.38 in 4.0 mi Calm Calm - N/A   Mostly Cloudy
8:21 PM 51.8 °F - 50.0 °F 94% 30.38 in 4.0 mi Calm Calm - N/A   Overcast
8:47 PM 51.8 °F - 51.8 °F 100% 30.39 in 5.0 mi Calm Calm - N/A   Overcast
8:56 PM 52.0 °F - 51.1 °F 97% 30.40 in 4.0 mi Calm Calm - N/A   Overcast
9:56 PM 52.0 °F - 52.0 °F 100% 30.41 in 5.0 mi Calm Calm - N/A   Overcast
10:56 PM 53.1 °F - 52.0 °F 96% 30.41 in 5.0 mi Calm Calm - N/A   Overcast
11:39 PM 53.6 °F - 51.8 °F 94% 30.42 in 2.5 mi Calm Calm - N/A   Overcast
11:56 PM 53.1 °F - 53.1 °F 100% 30.43 in 2.0 mi Calm Calm - N/A   Overcast